When you browse on this site, cookies collect data to enhance your experience and personalize the content and advertising you see.
Visit our Privacy Policy to learn more. By continuing to use the site, you agree to this use of cookies and data.
  • Em Portugal
  • Lista de países
  • Para 7 dias
  • Temperatura da água
  • Mapa do tempo
  • Widgets de tempo
  • user-avatar
    Iniciar Sessão

    Previsão horária em Mansa Konko

    Hoje, 28 Fevereiro, Sexta-feira

    Tempo Temperatura Precipitação Vento Pressão Humidade
    00:00 +26°C° 0 mm 1 m/s 758 mmHg 19%
    01:00 +25°C° 0 mm 1 m/s 758 mmHg 21%
    02:00 +22°C° 0 mm 0 m/s 757 mmHg 23%
    03:00 +24°C° 0 mm 1 m/s 757 mmHg 21%
    04:00 +24°C° 0 mm 1 m/s 757 mmHg 18%
    05:00 +24°C° 0 mm 1 m/s 757 mmHg 16%
    06:00 +25°C° 0 mm 2 m/s 758 mmHg 14%
    07:00 +27°C° 0 mm 2 m/s 759 mmHg 11%
    08:00 +29°C° 0 mm 2 m/s 759 mmHg 9%
    09:00 +33°C° 0 mm 3 m/s 759 mmHg 7%
    10:00 +37°C° 0 mm 3 m/s 758 mmHg 6%
    11:00 +40°C° 0 mm 3 m/s 758 mmHg 4%
    12:00 +42°C° 0 mm 3 m/s 757 mmHg 4%
    13:00 +43°C° 0 mm 2 m/s 756 mmHg 4%
    14:00 +44°C° 0 mm 1 m/s 755 mmHg 4%
    15:00 +45°C° 0 mm 2 m/s 755 mmHg 4%
    16:00 +43°C° 0 mm 2 m/s 755 mmHg 4%
    17:00 +42°C° 0 mm 2 m/s 755 mmHg 4%
    18:00 +39°C° 0 mm 2 m/s 755 mmHg 5%
    19:00 +35°C° 0 mm 3 m/s 756 mmHg 6%
    20:00 +31°C° 0 mm 3 m/s 757 mmHg 7%
    21:00 +29°C° 0 mm 2 m/s 757 mmHg 11%
    22:00 +27°C° 0 mm 2 m/s 757 mmHg 15%
    23:00 +25°C° 0 mm 2 m/s 758 mmHg 19%

    Amanhã, 29 Fevereiro, Sábado

    Tempo Temperatura Precipitação Vento Pressão Humidade
    00:00 +25°C° 0 mm 2 m/s 757 mmHg 16%
    01:00 +25°C° 0 mm 3 m/s 757 mmHg 13%
    02:00 +24°C° 0 mm 3 m/s 757 mmHg 10%
    03:00 +24°C° 0 mm 3 m/s 757 mmHg 10%
    04:00 +22°C° 0 mm 3 m/s 757 mmHg 10%
    05:00 +21°C° 0 mm 3 m/s 757 mmHg 10%
    06:00 +24°C° 0 mm 3 m/s 757 mmHg 9%
    07:00 +26°C° 0 mm 4 m/s 758 mmHg 8%
    08:00 +27°C° 0 mm 4 m/s 758 mmHg 7%
    09:00 +32°C° 0 mm 4 m/s 758 mmHg 6%
    10:00 +36°C° 0 mm 5 m/s 758 mmHg 4%
    11:00 +41°C° 0 mm 5 m/s 757 mmHg 3%
    12:00 +42°C° 0 mm 5 m/s 756 mmHg 3%
    13:00 +45°C° 0 mm 5 m/s 755 mmHg 3%
    14:00 +45°C° 0 mm 4 m/s 754 mmHg 3%
    15:00 +44°C° 0 mm 4 m/s 754 mmHg 4%
    16:00 +44°C° 0 mm 3 m/s 754 mmHg 4%
    17:00 +43°C° 0 mm 2 m/s 754 mmHg 4%
    18:00 +40°C° 0 mm 2 m/s 754 mmHg 5%
    19:00 +36°C° 0 mm 2 m/s 755 mmHg 6%
    20:00 +32°C° 0 mm 2 m/s 755 mmHg 7%
    21:00 +31°C° 0 mm 2 m/s 756 mmHg 8%
    22:00 +29°C° 0 mm 2 m/s 756 mmHg 10%
    23:00 +27°C° 0 mm 2 m/s 756 mmHg 11%

    Depois de amanhã, 1 Março, Domingo

    Tempo Temperatura Precipitação Vento Pressão Humidade
    00:00 +27°C° 0 mm 2 m/s 756 mmHg 11%
    01:00 +26°C° 0 mm 2 m/s 756 mmHg 10%
    02:00 +25°C° 0 mm 2 m/s 756 mmHg 10%
    03:00 +25°C° 0 mm 2 m/s 756 mmHg 10%
    04:00 +24°C° 0 mm 2 m/s 756 mmHg 10%
    05:00 +24°C° 0 mm 2 m/s 756 mmHg 10%
    06:00 +25°C° 0 mm 2 m/s 756 mmHg 9%
    07:00 +27°C° 0 mm 2 m/s 757 mmHg 8%
    08:00 +29°C° 0 mm 3 m/s 757 mmHg 7%
    09:00 +34°C° 0 mm 4 m/s 757 mmHg 6%
    10:00 +39°C° 0 mm 5 m/s 757 mmHg 5%
    11:00 +42°C° 0 mm 6 m/s 757 mmHg 3%
    12:00 +43°C° 0 mm 5 m/s 756 mmHg 3%
    13:00 +45°C° 0 mm 5 m/s 755 mmHg 3%
    14:00 +45°C° 0 mm 4 m/s 754 mmHg 3%
    15:00 +45°C° 0 mm 4 m/s 754 mmHg 4%
    16:00 +45°C° 0 mm 3 m/s 753 mmHg 4%
    17:00 +44°C° 0 mm 3 m/s 753 mmHg 4%
    18:00 +40°C° 0 mm 2 m/s 754 mmHg 6%
    19:00 +37°C° 0 mm 2 m/s 755 mmHg 7%
    20:00 +32°C° 0 mm 2 m/s 755 mmHg 9%
    21:00 +30°C° 0 mm 2 m/s 756 mmHg 17%
    22:00 +28°C° 0 mm 2 m/s 756 mmHg 24%
    23:00 +25°C° 0 mm 2 m/s 756 mmHg 32%

    2 Março, Segunda-feira

    Tempo Temperatura Precipitação Vento Pressão Humidade
    00:00 +24°C° 0 mm 1 m/s 756 mmHg 33%
    01:00 +24°C° 0 mm 1 m/s 756 mmHg 34%
    02:00 +21°C° 0 mm 0 m/s 756 mmHg 35%
    03:00 +23°C° 0 mm 1 m/s 756 mmHg 37%
    04:00 +22°C° 0 mm 1 m/s 756 mmHg 38%
    05:00 +22°C° 0 mm 1 m/s 756 mmHg 39%
    06:00 +24°C° 0 mm 1 m/s 756 mmHg 37%
    07:00 +25°C° 0 mm 2 m/s 757 mmHg 35%
    08:00 +27°C° 0 mm 2 m/s 758 mmHg 34%
    09:00 +31°C° 0 mm 2 m/s 758 mmHg 26%
    10:00 +36°C° 0 mm 3 m/s 758 mmHg 18%
    11:00 +41°C° 0 mm 4 m/s 758 mmHg 10%
    12:00 +42°C° 0 mm 4 m/s 757 mmHg 9%
    13:00 +44°C° 0 mm 4 m/s 756 mmHg 8%
    14:00 +45°C° 0 mm 4 m/s 755 mmHg 6%
    15:00 +45°C° 0 mm 3 m/s 755 mmHg 6%
    16:00 +45°C° 0 mm 3 m/s 754 mmHg 7%
    17:00 +43°C° 0 mm 2 m/s 754 mmHg 7%
    18:00 +40°C° 0 mm 2 m/s 755 mmHg 10%
    19:00 +36°C° 0 mm 2 m/s 756 mmHg 13%
    20:00 +32°C° 0 mm 2 m/s 756 mmHg 17%
    21:00 +29°C° 0 mm 2 m/s 757 mmHg 28%
    22:00 +27°C° 0 mm 2 m/s 757 mmHg 39%
    23:00 +25°C° 0 mm 2 m/s 758 mmHg 50%

    3 Março, Terça-feira

    Tempo Temperatura Precipitação Vento Pressão Humidade
    00:00 +24°C° 0 mm 2 m/s 757 mmHg 52%
    01:00 +24°C° 0 mm 2 m/s 757 mmHg 54%
    02:00 +23°C° 0 mm 2 m/s 757 mmHg 55%
    03:00 +22°C° 0 mm 1 m/s 757 mmHg 57%
    04:00 +22°C° 0 mm 1 m/s 757 mmHg 58%
    05:00 +21°C° 0 mm 1 m/s 757 mmHg 60%
    06:00 +23°C° 0 mm 1 m/s 757 mmHg 54%
    07:00 +25°C° 0 mm 1 m/s 758 mmHg 49%
    08:00 +27°C° 0 mm 1 m/s 758 mmHg 43%
    09:00 +31°C° 0 mm 2 m/s 758 mmHg 32%
    10:00 +36°C° 0 mm 3 m/s 758 mmHg 21%
    11:00 +40°C° 0 mm 3 m/s 758 mmHg 11%
    12:00 +42°C° 0 mm 3 m/s 757 mmHg 9%
    13:00 +44°C° 0 mm 3 m/s 756 mmHg 7%
    14:00 +45°C° 0 mm 3 m/s 755 mmHg 6%
    15:00 +45°C° 0 mm 3 m/s 755 mmHg 6%
    16:00 +45°C° 0 mm 2 m/s 755 mmHg 6%
    17:00 +45°C° 0 mm 2 m/s 755 mmHg 6%
    18:00 +39°C° 0 mm 3 m/s 755 mmHg 12%
    19:00 +35°C° 0 mm 3 m/s 756 mmHg 19%
    20:00 +30°C° 0 mm 4 m/s 757 mmHg 26%
    21:00 +28°C° 0 mm 4 m/s 757 mmHg 35%
    22:00 +26°C° 0 mm 3 m/s 757 mmHg 43%
    23:00 +24°C° 0 mm 3 m/s 758 mmHg 51%

    4 Março, Quarta-feira

    Tempo Temperatura Precipitação Vento Pressão Humidade
    00:00 +24°C° 0 mm 2 m/s 757 mmHg 50%
    01:00 +23°C° 0 mm 2 m/s 757 mmHg 49%
    02:00 +23°C° 0 mm 2 m/s 757 mmHg 48%
    03:00 +21°C° 0 mm 2 m/s 757 mmHg 46%
    04:00 +22°C° 0 mm 1 m/s 757 mmHg 44%
    05:00 +21°C° 0 mm 1 m/s 757 mmHg 43%
    06:00 +23°C° 0 mm 1 m/s 757 mmHg 37%
    07:00 +25°C° 0 mm 1 m/s 758 mmHg 32%
    08:00 +27°C° 0 mm 1 m/s 759 mmHg 27%
    09:00 +31°C° 0 mm 2 m/s 758 mmHg 21%
    10:00 +36°C° 0 mm 2 m/s 758 mmHg 15%
    11:00 +40°C° 0 mm 3 m/s 758 mmHg 9%
    12:00 +43°C° 0 mm 3 m/s 757 mmHg 7%
    13:00 +44°C° 0 mm 3 m/s 756 mmHg 6%
    14:00 +46°C° 0 mm 3 m/s 755 mmHg 5%
    15:00 +45°C° 0 mm 3 m/s 755 mmHg 5%
    16:00 +45°C° 0 mm 2 m/s 755 mmHg 5%
    17:00 +45°C° 0 mm 2 m/s 755 mmHg 5%
    18:00 +40°C° 0 mm 2 m/s 755 mmHg 7%
    19:00 +37°C° 0 mm 2 m/s 756 mmHg 9%
    20:00 +32°C° 0 mm 2 m/s 756 mmHg 12%
    21:00 +30°C° 0 mm 2 m/s 757 mmHg 21%
    22:00 +27°C° 0 mm 2 m/s 757 mmHg 30%
    23:00 +25°C° 0 mm 2 m/s 757 mmHg 39%
    Mostrar mais